| time (UTC) | temp F | wind direction | speed MPH | gust MPH | rain 1hr in | rain 24hr in | rain mn in | humidity % | barometer mb |
| 20260505034544 | 52 | 103 | 0.0 | 0.0 | 0.03 | 0.83 | 0.30 | 96 | 1009.1 |
| 20260505033042 | 52 | 103 | 0.0 | 0.0 | 0.03 | 0.83 | 0.28 | 96 | 1009.3 |
| 20260505031551 | 52 | 69 | 0.0 | 0.0 | 0.06 | 0.83 | 0.28 | 96 | 1009.5 |
| 20260505030042 | 53 | 69 | 0.0 | 0.0 | 0.08 | 0.82 | 0.28 | 96 | 1009.4 |
| 20260505024540 | 53 | 69 | 0.0 | 0.0 | 0.07 | 0.80 | 0.27 | 96 | 1009.5 |
| 20260505023039 | 53 | 76 | 0.0 | 0.0 | 0.07 | 0.80 | 0.26 | 96 | 1009.6 |
| 20260505021537 | 53 | 92 | 0.0 | 0.0 | 0.05 | 0.76 | 0.23 | 96 | 1009.9 |
| 20260505020034 | 53 | 91 | 0.0 | 0.0 | 0.03 | 0.74 | 0.20 | 96 | 1010.1 |
| 20260505014533 | 53 | 116 | 0.0 | 0.0 | 0.04 | 0.73 | 0.20 | 96 | 1010.4 |
| 20260505013043 | 53 | 116 | 0.0 | 0.0 | 0.05 | 0.72 | 0.19 | 95 | 1010.4 |
| 20260505011532 | 53 | 116 | 0.0 | 0.0 | 0.06 | 0.72 | 0.18 | 96 | 1010.3 |
| 20260505010034 | 53 | 116 | 0.0 | 0.0 | 0.07 | 0.71 | 0.17 | 95 | 1010.4 |
| 20260505004530 | 53 | 116 | 0.0 | 0.0 | 0.08 | 0.69 | 0.16 | 95 | 1010.5 |
| 20260505003032 | 53 | 136 | 0.0 | 0.0 | 0.07 | 0.67 | 0.13 | 95 | 1010.6 |
| 20260505001527 | 53 | 152 | 0.0 | 0.0 | 0.09 | 0.65 | 0.12 | 95 | 1010.9 |
| 20260505000028 | 53 | 148 | 0.0 | 2.0 | 0.09 | 0.64 | 0.10 | 95 | 1010.9 |
| 20260504234524 | 53 | 155 | 2.0 | 4.0 | 0.07 | 0.61 | 0.08 | 95 | 1011.1 |
| 20260504233022 | 53 | 139 | 2.0 | 7.0 | 0.06 | 0.60 | 0.06 | 95 | 1011.2 |
| 20260504231520 | 53 | 144 | 2.0 | 6.0 | 0.03 | 0.56 | 0.03 | 95 | 1011.2 |
| 20260504230020 | 53 | 119 | 3.0 | 6.0 | 0.01 | 0.54 | 0.01 | 95 | 1011.3 |
| 20260504224521 | 53 | 168 | 2.0 | 6.0 | 0.01 | 0.54 | 0.01 | 95 | 1011.2 |
| 20260504223019 | 53 | 142 | 2.0 | 5.0 | 0.00 | 0.54 | 0.00 | 96 | 1011.3 |
| 20260504221517 | 53 | 154 | 1.0 | 3.0 | 0.00 | 0.54 | 0.00 | 95 | 1011.3 |
| 20260504220020 | 53 | 141 | 1.0 | 3.0 | 0.00 | 0.54 | 0.00 | 95 | 1011.3 |
| 20260504214521 | 52 | 69 | 0.0 | 2.0 | 0.00 | 0.54 | 0.54 | 95 | 1011.3 |
| 20260504213014 | 52 | 66 | 1.0 | 2.0 | 0.00 | 0.54 | 0.54 | 95 | 1011.3 |
| 20260504211524 | 52 | 66 | 0.0 | 0.0 | 0.00 | 0.54 | 0.54 | 95 | 1011.4 |
| 20260504210014 | 52 | 68 | 1.0 | 4.0 | 0.00 | 0.54 | 0.54 | 94 | 1011.1 |
| 20260504204517 | 53 | 111 | 1.0 | 3.0 | 0.00 | 0.54 | 0.54 | 94 | 1011.2 |
| 20260504203012 | 53 | 158 | 0.0 | 3.0 | 0.00 | 0.54 | 0.54 | 94 | 1011.4 |
| 20260504201510 | 53 | 128 | 1.0 | 3.0 | 0.00 | 0.54 | 0.54 | 94 | 1011.5 |
| 20260504200010 | 53 | 202 | 0.0 | 0.0 | 0.00 | 0.54 | 0.54 | 94 | 1011.4 |
| 20260504194510 | 53 | 202 | 0.0 | 1.0 | 0.00 | 0.54 | 0.54 | 92 | 1011.5 |
| 20260504193044 | 54 | 202 | 0.0 | 2.0 | 0.00 | 0.54 | 0.54 | 92 | 1011.4 |
| 20260504191554 | 54 | 202 | 1.0 | 4.0 | 0.00 | 0.54 | 0.54 | 92 | 1011.3 |
| 20260504190046 | 54 | 221 | 2.0 | 5.0 | 0.00 | 0.54 | 0.54 | 92 | 1011.4 |
| 20260504184557 | 55 | 199 | 2.0 | 4.0 | 0.00 | 0.54 | 0.54 | 92 | 1011.3 |
| 20260504183043 | 55 | 219 | 2.0 | 5.0 | 0.00 | 0.54 | 0.54 | 92 | 1011.4 |
| 20260504181541 | 55 | 208 | 3.0 | 6.0 | 0.01 | 0.54 | 0.54 | 92 | 1011.4 |
| 20260504180042 | 55 | 184 | 5.0 | 8.0 | 0.01 | 0.54 | 0.54 | 92 | 1011.6 |
| 20260504174540 | 55 | 152 | 3.0 | 7.0 | 0.01 | 0.54 | 0.54 | 92 | 1011.5 |
| 20260504173037 | 56 | 163 | 4.0 | 8.0 | 0.02 | 0.54 | 0.54 | 92 | 1011.7 |
| 20260504171535 | 56 | 150 | 5.0 | 11.0 | 0.01 | 0.53 | 0.53 | 91 | 1011.9 |
| 20260504081506 | 52 | 130 | 2.0 | 4.0 | 0.12 | 0.28 | 0.28 | 92 | 1014.5 |
| 20260504044536 | 56 | 196 | 2.0 | 8.0 | 0.00 | 0.02 | 0.00 | 72 | 1013.1 |
| 20260504043034 | 57 | 196 | 6.0 | 11.0 | 0.00 | 0.02 | 0.00 | 69 | 1013.1 |
| 20260504041533 | 57 | 190 | 4.0 | 8.0 | 0.00 | 0.02 | 0.00 | 67 | 1013.0 |
| 20260504040036 | 57 | 175 | 6.0 | 13.0 | 0.00 | 0.02 | 0.00 | 66 | 1013.0 |